When you browse on this site, cookies collect data to enhance your experience and personalize the content and advertising you see.
Visit our Privacy Policy to learn more. By continuing to use the site, you agree to this use of cookies and data.
  • In United Kingdom
  • List of Countries
  • For 7 days
  • Water Temperature
  • Satellite Maps
  • Weather Map
  • Weather Widgets
  • user-avatar
    Login

    Hourly Weather Adelaide

    Today, 22 February, Friday

    Time Temperature Precipitation Wind Pressure Humidity
    00:00 +18°C° 0 mm 4 mps 761 mmHg 74%
    01:00 +18°C° 0 mm 4 mps 761 mmHg 74%
    02:00 +18°C° 0 mm 4 mps 761 mmHg 73%
    03:00 +18°C° 0 mm 3 mps 761 mmHg 74%
    04:00 +18°C° 0 mm 3 mps 761 mmHg 72%
    05:00 +18°C° 0 mm 3 mps 761 mmHg 70%
    06:00 +18°C° 0 mm 3 mps 762 mmHg 68%
    07:00 +20°C° 0 mm 3 mps 762 mmHg 59%
    08:00 +22°C° 0 mm 3 mps 762 mmHg 50%
    09:00 +26°C° 0 mm 1 mps 763 mmHg 41%
    10:00 +28°C° 0 mm 2 mps 762 mmHg 36%
    11:00 +30°C° 0 mm 2 mps 762 mmHg 32%
    12:00 +32°C° 0 mm 2 mps 761 mmHg 27%
    13:00 +33°C° 0 mm 3 mps 761 mmHg 28%
    14:00 +33°C° 0 mm 3 mps 761 mmHg 28%
    15:00 +33°C° 0 mm 4 mps 760 mmHg 28%
    16:00 +30°C° 0 mm 4 mps 760 mmHg 33%
    17:00 +29°C° 0 mm 5 mps 761 mmHg 37%
    18:00 +27°C° 0 mm 5 mps 761 mmHg 42%
    19:00 +25°C° 0 mm 5 mps 761 mmHg 49%
    20:00 +23°C° 0 mm 5 mps 761 mmHg 56%
    21:00 +22°C° 0 mm 5 mps 761 mmHg 63%
    22:00 +22°C° 0 mm 5 mps 761 mmHg 64%
    23:00 +22°C° 0 mm 5 mps 761 mmHg 64%

    Tomorrow, 23 February, Saturday

    Time Temperature Precipitation Wind Pressure Humidity
    00:00 +22°C° 0 mm 5 mps 761 mmHg 65%
    01:00 +22°C° 0 mm 4 mps 761 mmHg 63%
    02:00 +22°C° 0 mm 4 mps 761 mmHg 60%
    03:00 +22°C° 0 mm 4 mps 761 mmHg 58%
    04:00 +21°C° 0 mm 4 mps 761 mmHg 58%
    05:00 +21°C° 0 mm 4 mps 761 mmHg 59%
    06:00 +21°C° 0 mm 4 mps 762 mmHg 60%
    07:00 +23°C° 0 mm 4 mps 762 mmHg 52%
    08:00 +26°C° 0 mm 3 mps 762 mmHg 45%
    09:00 +29°C° 0 mm 3 mps 762 mmHg 38%
    10:00 +30°C° 0 mm 3 mps 762 mmHg 34%
    11:00 +33°C° 0 mm 3 mps 762 mmHg 29%
    12:00 +35°C° 0 mm 2 mps 762 mmHg 25%
    13:00 +35°C° 0 mm 3 mps 761 mmHg 23%
    14:00 +36°C° 0 mm 3 mps 761 mmHg 22%
    15:00 +36°C° 0 mm 4 mps 760 mmHg 21%
    16:00 +34°C° 0 mm 4 mps 760 mmHg 24%
    17:00 +33°C° 0 mm 4 mps 760 mmHg 27%
    18:00 +30°C° 0 mm 5 mps 760 mmHg 31%
    19:00 +28°C° 0 mm 4 mps 760 mmHg 36%
    20:00 +27°C° 0 mm 4 mps 761 mmHg 41%
    21:00 +25°C° 0 mm 4 mps 761 mmHg 46%
    22:00 +25°C° 0 mm 4 mps 761 mmHg 46%
    23:00 +25°C° 0 mm 4 mps 761 mmHg 46%

    Day after tomorrow, 24 February, Sunday

    Time Temperature Precipitation Wind Pressure Humidity
    00:00 +25°C° 0 mm 3 mps 761 mmHg 47%
    01:00 +25°C° 0 mm 3 mps 760 mmHg 43%
    02:00 +25°C° 0 mm 3 mps 760 mmHg 39%
    03:00 +25°C° 0 mm 3 mps 760 mmHg 35%
    04:00 +25°C° 0 mm 3 mps 760 mmHg 34%
    05:00 +25°C° 0 mm 3 mps 760 mmHg 33%
    06:00 +25°C° 0 mm 3 mps 761 mmHg 32%
    07:00 +28°C° 0 mm 3 mps 761 mmHg 28%
    08:00 +30°C° 0 mm 3 mps 761 mmHg 25%
    09:00 +34°C° 0 mm 3 mps 761 mmHg 21%
    10:00 +35°C° 0 mm 3 mps 761 mmHg 20%
    11:00 +37°C° 0 mm 2 mps 761 mmHg 18%
    12:00 +38°C° 0 mm 2 mps 761 mmHg 16%
    13:00 +39°C° 0 mm 2 mps 760 mmHg 16%
    14:00 +39°C° 0 mm 2 mps 760 mmHg 15%
    15:00 +39°C° 0 mm 2 mps 759 mmHg 15%
    16:00 +38°C° 0 mm 2 mps 759 mmHg 16%
    17:00 +37°C° 0 mm 3 mps 759 mmHg 17%
    18:00 +35°C° 0 mm 3 mps 759 mmHg 19%
    19:00 +34°C° 0 mm 4 mps 760 mmHg 21%
    20:00 +32°C° 0 mm 4 mps 760 mmHg 23%
    21:00 +29°C° 0 mm 4 mps 760 mmHg 26%
    22:00 +29°C° 0 mm 4 mps 761 mmHg 26%
    23:00 +29°C° 0 mm 3 mps 761 mmHg 27%

    25 February, Monday

    Time Temperature Precipitation Wind Pressure Humidity
    00:00 +29°C° 0 mm 3 mps 761 mmHg 27%
    01:00 +28°C° 0 mm 3 mps 760 mmHg 28%
    02:00 +28°C° 0 mm 3 mps 760 mmHg 29%
    03:00 +27°C° 0 mm 2 mps 760 mmHg 30%
    04:00 +27°C° 0 mm 3 mps 761 mmHg 30%
    05:00 +28°C° 0 mm 3 mps 761 mmHg 30%
    06:00 +28°C° 0 mm 3 mps 761 mmHg 29%
    07:00 +30°C° 0 mm 4 mps 762 mmHg 26%
    08:00 +33°C° 0 mm 4 mps 762 mmHg 23%
    09:00 +35°C° 0 mm 4 mps 762 mmHg 20%
    10:00 +37°C° 0 mm 3 mps 762 mmHg 19%
    11:00 +38°C° 0 mm 3 mps 761 mmHg 18%
    12:00 +39°C° 0 mm 2 mps 761 mmHg 17%
    13:00 +39°C° 0 mm 2 mps 761 mmHg 16%
    14:00 +39°C° 0 mm 2 mps 760 mmHg 16%
    15:00 +40°C° 0 mm 2 mps 759 mmHg 16%
    16:00 +38°C° 0 mm 2 mps 759 mmHg 17%
    17:00 +37°C° 0 mm 2 mps 759 mmHg 18%
    18:00 +36°C° 0 mm 2 mps 759 mmHg 20%
    19:00 +34°C° 0 mm 3 mps 760 mmHg 22%
    20:00 +33°C° 0 mm 3 mps 760 mmHg 24%
    21:00 +31°C° 0 mm 3 mps 760 mmHg 26%
    22:00 +30°C° 0 mm 3 mps 760 mmHg 27%
    23:00 +30°C° 0 mm 3 mps 760 mmHg 28%

    26 February, Tuesday

    Time Temperature Precipitation Wind Pressure Humidity
    00:00 +29°C° 0 mm 3 mps 760 mmHg 28%
    01:00 +29°C° 0 mm 3 mps 760 mmHg 28%
    02:00 +28°C° 0 mm 3 mps 759 mmHg 27%
    03:00 +28°C° 0 mm 3 mps 759 mmHg 27%
    04:00 +28°C° 0 mm 3 mps 759 mmHg 27%
    05:00 +28°C° 0 mm 3 mps 760 mmHg 27%
    06:00 +28°C° 0 mm 2 mps 760 mmHg 28%
    07:00 +30°C° 0 mm 2 mps 760 mmHg 25%
    08:00 +33°C° 0 mm 3 mps 761 mmHg 22%
    09:00 +35°C° 0 mm 3 mps 761 mmHg 19%
    10:00 +36°C° 0 mm 3 mps 760 mmHg 18%
    11:00 +37°C° 0 mm 3 mps 760 mmHg 17%
    12:00 +38°C° 0 mm 3 mps 760 mmHg 16%
    13:00 +38°C° 0 mm 3 mps 759 mmHg 17%
    14:00 +38°C° 0 mm 4 mps 759 mmHg 18%
    15:00 +38°C° 0 mm 4 mps 758 mmHg 18%
    16:00 +36°C° 0 mm 4 mps 758 mmHg 25%
    17:00 +34°C° 0 mm 4 mps 759 mmHg 32%
    18:00 +32°C° 0 mm 4 mps 759 mmHg 38%
    19:00 +29°C° 0 mm 4 mps 759 mmHg 44%
    20:00 +27°C° 0 mm 4 mps 759 mmHg 50%
    21:00 +25°C° 0 mm 4 mps 760 mmHg 56%
    22:00 +25°C° 0 mm 3 mps 760 mmHg 58%
    23:00 +24°C° 0 mm 3 mps 759 mmHg 59%

    27 February, Wednesday

    Time Temperature Precipitation Wind Pressure Humidity
    00:00 +24°C° 0 mm 2 mps 759 mmHg 61%
    01:00 +24°C° 0 mm 2 mps 759 mmHg 61%
    02:00 +24°C° 0 mm 1 mps 759 mmHg 61%
    03:00 +23°C° 0 mm 1 mps 759 mmHg 61%
    04:00 +24°C° 0 mm 1 mps 759 mmHg 59%
    05:00 +24°C° 0 mm 1 mps 759 mmHg 57%
    06:00 +24°C° 0 mm 1 mps 759 mmHg 54%
    07:00 +27°C° 0 mm 1 mps 759 mmHg 47%
    08:00 +29°C° 0 mm 1 mps 759 mmHg 39%
    09:00 +32°C° 0 mm 2 mps 760 mmHg 31%
    10:00 +34°C° 0 mm 2 mps 759 mmHg 29%
    11:00 +35°C° 0 mm 3 mps 759 mmHg 28%
    12:00 +36°C° 0 mm 4 mps 759 mmHg 26%
    13:00 +36°C° 0 mm 4 mps 758 mmHg 26%
    14:00 +36°C° 0 mm 4 mps 758 mmHg 25%
    15:00 +35°C° 0 mm 4 mps 758 mmHg 25%
    16:00 +34°C° 0 mm 4 mps 758 mmHg 28%
    17:00 +33°C° 0 mm 4 mps 758 mmHg 31%
    18:00 +30°C° 0 mm 3 mps 758 mmHg 34%
    19:00 +29°C° 0 mm 3 mps 759 mmHg 40%
    20:00 +27°C° 0 mm 3 mps 760 mmHg 46%
    21:00 +25°C° 0 mm 3 mps 760 mmHg 53%
    22:00 +25°C° 0 mm 3 mps 760 mmHg 54%
    23:00 +24°C° 0 mm 2 mps 760 mmHg 56%
    Show more